Theta_e
354 361 367 367 368 368 364 365 364 363 361 361 361 361 362 363 364 364 363 363 363 364 363 360 358 356 355 354 356 357 358 357 356 354 352 352 352 351 351 352 353 346 351
357 361 366 367 367 368 365 365 364 362 361 361 362 361 362 363 364 364 363 363 362 361 361 360 357 355 354 354 356 356 356 354 354 353 353 351 350 350 349 349 349 347 349
357 361 362 366 367 367 365 365 363 362 361 362 362 362 363 363 363 364 363 362 361 359 357 356 355 354 353 353 354 354 354 353 353 352 354 351 344 350 350 349 348 348 348
359 360 360 366 366 366 365 364 362 361 361 362 362 362 363 363 363 363 363 361 358 356 355 355 355 355 354 353 353 352 351 351 354 356 351 352 345 351 351 349 348 347 346
357 360 363 365 365 366 365 363 362 362 362 362 362 363 362 362 363 362 362 360 356 353 353 354 355 354 355 353 353 353 353 356 358 354 351 346 346 350 351 349 349 347 347
353 358 362 364 364 365 365 364 363 363 362 362 363 363 362 362 362 361 361 359 356 353 354 355 355 354 353 353 354 353 353 355 355 345 348 345 350 354 353 351 350 348 346
352 359 359 363 364 365 365 364 363 362 362 362 362 362 362 361 361 361 360 358 356 354 354 355 355 354 353 352 351 351 352 353 346 344 344 350 350 355 356 352 351 349 347
356 355 357 362 363 363 363 363 362 361 362 362 362 361 361 360 360 359 359 358 356 355 355 355 355 355 354 353 352 353 352 350 345 342 344 349 352 357 357 356 354 353 351
356 352 356 356 361 363 362 362 362 361 361 361 360 360 360 360 359 359 358 357 356 355 356 356 356 356 355 354 353 353 353 351 344 339 340 344 355 356 357 356 356 355 354
352 350 351 353 353 356 359 362 361 361 361 360 360 360 359 359 359 358 357 356 356 355 355 355 356 356 355 354 353 353 353 352 344 337 335 344 353 356 356 356 356 357 357
349 350 348 347 350 349 350 357 359 359 359 359 359 359 356 351 353 353 353 355 356 355 354 355 355 355 354 354 353 353 353 342 336 335 335 350 352 355 356 356 356 357 357
347 347 348 347 348 347 345 353 351 350 352 352 351 355 351 349 350 348 352 357 357 355 355 354 353 353 351 339 339 350 345 337 332 330 333 352 350 350 350 349 351 354 357
347 346 347 350 351 348 347 349 348 347 347 349 350 353 350 346 352 349 354 351 352 353 347 349 347 345 338 336 333 339 338 337 332 331 342 349 348 351 351 351 352 352 355
345 346 348 352 352 354 353 351 349 348 348 347 349 355 350 350 355 351 348 350 349 346 344 346 343 343 340 340 340 342 340 338 335 335 342 350 349 350 351 351 353 354 353
345 347 348 353 354 358 361 354 350 351 350 351 350 354 353 350 356 354 354 349 348 349 347 348 346 350 348 346 345 345 341 341 341 340 337 352 349 348 350 352 352 354 355
347 348 351 353 359 359 364 363 358 356 354 355 355 354 357 359 362 360 360 359 358 358 352 349 351 353 353 354 353 354 352 351 350 349 346 343 348 346 349 351 352 353 355
344 350 355 356 360 361 363 367 361 364 359 356 360 361 359 362 365 363 361 358 358 358 359 358 356 355 353 351 350 349 348 348 348 351 352 349 348 347 347 349 350 352 353
331 347 353 354 360 363 362 365 364 361 361 363 358 362 361 362 361 365 360 359 357 357 356 356 356 354 352 351 349 349 352 352 350 350 348 347 345 346 348 347 349 350 352
334 329 353 357 360 362 367 364 364 367 367 360 363 359 361 362 362 361 360 357 359 357 346 354 356 356 351 351 348 347 350 350 350 348 347 350 350 346 344 349 346 347 350
328 335 354 358 364 364 364 366 363 362 362 366 364 358 359 361 360 361 357 359 354 357 354 355 355 354 354 349 345 342 346 345 344 344 344 347 349 348 347 348 346 343 348
333 338 345 358 366 362 362 359 357 357 358 358 363 363 360 359 358 361 356 358 358 355 356 356 354 353 349 350 346 341 342 342 340 345 346 344 344 346 346 347 352 348 346
341 346 346 353 369 362 359 359 357 353 354 356 356 360 359 359 359 360 359 358 358 350 355 355 350 347 344 344 337 333 327 332 338 338 335 335 341 340 336 341 333 348 349
338 343 347 351 358 365 360 361 363 363 361 357 354 357 358 359 356 360 356 351 354 355 346 353 349 345 339 339 340 332 323 323 327 330 332 334 335 338 342 342 339 336 342
337 338 344 351 357 359 361 357 357 349 348 348 355 356 358 360 357 356 356 356 351 347 342 348 344 342 340 332 334 336 336 331 323 322 330 332 332 333 340 337 330 332 342
334 339 344 350 350 358 358 362 356 356 354 356 353 358 358 359 358 354 352 347 347 345 344 340 339 338 337 335 331 331 331 328 325 328 319 321 326 326 327 328 340 344 342
328 331 338 345 354 354 360 358 360 361 353 353 353 353 351 351 349 346 343 346 347 343 340 339 338 339 338 337 335 331 326 322 322 321 319 319 320 324 326 329 331 332 337
Wind_Speed
18 17 16 16 15 14 15 15 14 14 14 13 13 12 11 12 13 14 14 13 12 12 11 10 9 9 9 10 11 11 11 9 8 9 10 10 10 10 9 11 10 11 10
22 18 16 16 15 14 15 15 15 15 14 13 13 12 12 11 12 13 13 12 11 11 10 9 9 9 9 9 10 9 7 5 4 4 6 8 8 11 9 10 13 9 9
21 17 17 17 16 15 15 16 16 15 14 14 14 12 12 12 12 12 12 11 11 10 9 8 8 8 8 8 8 7 5 4 4 2 4 5 6 12 10 9 8 8 7
20 16 16 17 17 17 16 16 16 15 15 14 13 13 12 12 11 11 11 10 9 9 8 8 8 7 7 7 7 5 2 5 8 8 6 10 8 10 10 8 6 6 5
18 17 16 18 17 16 15 16 16 15 15 15 14 13 12 11 11 9 9 9 8 7 7 7 7 6 6 6 5 3 3 7 10 12 10 7 6 9 10 7 7 6 5
20 19 17 19 18 18 17 16 16 16 15 15 14 13 12 11 10 9 9 8 8 7 7 7 6 5 5 4 3 1 3 8 12 10 5 4 8 12 10 7 6 6 6
19 18 17 17 18 18 17 17 16 16 15 14 14 13 12 11 11 10 9 8 7 7 7 7 6 5 4 4 3 1 4 7 8 11 2 10 9 13 11 9 5 3 3
19 17 17 17 17 17 16 16 16 15 15 14 14 13 12 11 11 10 8 7 6 6 7 7 6 5 5 4 4 4 5 6 9 10 8 7 11 11 9 8 9 6 4
19 17 14 15 14 15 15 14 14 14 14 14 13 12 12 12 11 9 8 7 7 6 6 6 6 5 5 6 6 6 7 8 7 7 11 3 12 12 10 8 7 7 7
18 18 15 14 14 12 12 15 14 13 12 12 12 12 11 10 10 9 9 8 8 7 6 6 6 6 6 7 8 8 8 10 8 9 8 3 13 12 10 9 8 8 9
18 17 16 17 14 13 13 12 13 14 13 12 11 11 10 7 9 10 10 11 10 9 8 8 7 8 8 8 10 12 11 5 8 7 7 14 13 12 11 8 9 10 12
21 20 17 16 15 14 12 12 10 10 8 8 9 10 7 8 9 10 11 14 12 10 9 9 9 9 7 6 6 14 6 8 7 7 2 14 13 12 11 9 10 11 13
21 15 19 16 15 15 13 10 6 6 6 7 10 10 8 7 7 7 5 6 5 9 6 9 7 6 8 7 8 7 9 9 6 5 5 14 13 12 11 11 12 12 12
20 19 20 19 15 11 12 10 9 9 8 7 8 10 7 5 4 5 5 8 8 6 8 6 7 9 10 8 8 4 5 4 3 3 4 12 13 13 12 12 13 14 14
19 18 20 19 14 9 11 11 11 9 10 10 10 10 8 6 5 5 4 5 8 8 9 8 7 6 8 7 5 6 6 7 6 3 2 11 12 13 14 15 15 15 14
17 18 19 17 13 10 5 7 8 7 10 9 10 11 12 7 5 4 5 4 4 4 7 8 6 4 5 4 6 6 6 6 5 5 4 5 14 14 15 16 16 17 17
11 17 18 15 14 10 8 4 6 4 5 7 6 11 13 8 5 5 4 5 5 5 5 2 3 2 2 3 6 7 6 7 6 7 7 6 8 15 16 17 18 18 18
18 18 13 13 15 13 9 5 3 5 5 3 6 6 13 11 8 4 4 4 5 4 4 6 5 5 5 5 5 5 6 5 7 7 7 6 6 6 10 19 18 19 17
11 35 10 11 18 15 10 7 6 6 4 6 4 4 8 10 9 5 4 5 4 3 5 8 2 1 2 3 4 5 3 4 5 7 7 7 6 5 5 8 20 17 14
24 34 6 8 10 15 10 7 8 7 5 3 4 5 7 6 7 7 6 5 3 4 6 3 2 0 2 3 5 7 5 6 6 6 8 7 6 7 8 9 8 9 14
27 8 3 5 7 11 9 9 7 8 7 7 5 8 8 8 8 6 5 6 5 5 4 3 3 2 2 3 3 4 5 4 7 7 6 7 9 11 11 12 3 3 5
10 9 7 3 2 6 6 6 7 8 7 9 10 11 9 10 9 7 6 6 8 5 5 2 3 2 3 3 2 2 4 5 4 6 8 6 7 3 7 14 16 7 3
8 8 8 7 6 5 6 5 2 1 2 3 4 8 9 8 11 7 9 7 7 2 4 4 4 4 3 3 3 2 3 2 5 6 7 4 4 2 5 6 8 4 16
1 7 8 8 6 7 7 6 6 4 4 5 4 8 7 7 9 8 8 9 3 3 1 3 4 2 2 3 3 3 4 4 4 10 7 4 3 4 4 4 7 8 9
5 4 7 9 9 7 8 5 6 6 4 3 4 8 7 5 6 9 6 5 4 2 3 3 3 2 2 2 2 3 3 3 3 3 9 9 4 4 4 5 4 3 5
3 3 6 7 7 7 8 7 5 5 7 4 4 7 6 5 4 6 6 4 5 4 3 4 4 4 3 2 2 2 3 3 3 3 4 8 7 5 3 5 4 4 3
Wind_Direction
126 129 124 123 123 129 134 131 126 118 118 119 113 111 106 102 103 100 99 97 94 93 102 102 91 83 76 71 71 67 66 69 78 85 90 95 94 75 56 35 4 81 73
128 131 122 119 121 129 135 133 128 126 126 124 119 121 115 112 111 109 106 102 100 98 97 96 92 90 88 83 77 73 66 53 58 88 115 115 115 100 74 56 55 72 71
131 132 128 125 127 130 136 135 131 131 131 129 128 130 126 127 121 114 108 104 103 102 99 98 99 99 94 89 85 77 57 348 321 284 219 208 139 114 96 76 69 70 67
130 142 138 132 132 135 138 135 134 135 134 133 135 135 133 128 123 117 109 107 109 112 115 115 111 107 104 98 91 85 54 298 301 303 271 220 121 112 105 98 90 79 73
138 137 134 131 131 131 133 135 135 137 139 139 141 138 134 130 125 124 117 115 117 120 125 121 116 114 110 106 98 76 340 308 318 307 277 76 118 132 130 133 150 125 88
146 134 136 133 134 135 137 139 139 140 141 143 144 140 138 135 132 130 130 131 133 139 140 139 136 131 123 115 114 88 319 316 315 284 255 117 118 150 144 142 132 129 123
140 133 140 135 136 138 140 143 142 142 145 148 145 143 143 143 140 143 144 146 149 151 155 157 152 146 146 150 156 203 284 299 293 295 328 104 136 157 150 149 149 145 150
124 143 143 138 139 140 143 144 143 145 149 150 149 148 148 151 148 153 153 159 162 166 172 176 175 176 182 195 215 231 252 282 304 301 300 118 147 151 155 165 162 180 200
131 141 147 146 139 139 142 144 144 148 154 152 152 151 155 156 157 158 166 173 175 181 188 193 198 208 210 213 224 239 264 277 287 287 299 144 159 155 161 174 191 188 206
143 146 151 149 154 156 154 150 148 151 154 152 151 153 156 158 164 170 176 187 187 192 199 206 213 225 232 248 251 251 250 261 255 261 257 166 154 152 159 186 202 211 209
145 151 156 158 159 168 158 156 148 157 156 154 155 159 157 184 182 182 198 183 191 195 204 215 223 232 239 244 248 243 241 246 257 240 245 150 148 155 166 200 213 218 219
149 160 158 159 161 170 163 149 166 165 172 180 177 172 195 209 177 199 196 178 186 196 209 219 225 231 241 252 233 228 226 234 246 257 246 152 161 167 170 191 230 234 234
155 161 158 156 165 174 155 153 169 164 176 186 184 171 209 207 195 200 148 174 184 202 214 209 214 224 223 227 249 180 211 229 237 237 120 160 175 179 180 199 214 229 240
161 163 156 154 166 185 142 157 173 169 178 179 190 174 196 233 226 179 175 190 191 187 208 222 210 209 217 229 245 287 268 291 310 311 123 177 183 186 191 203 227 228 216
163 158 157 152 163 189 150 163 172 182 176 183 182 181 193 215 223 188 216 220 181 199 196 212 207 192 200 209 233 249 248 249 264 280 295 191 202 202 207 208 213 232 231
164 155 150 154 159 173 190 158 167 188 176 179 178 179 189 204 222 194 204 251 247 241 201 201 204 200 201 221 239 237 239 235 244 259 256 247 220 216 213 214 213 222 231
11 148 145 153 161 170 183 185 166 176 193 181 181 170 181 196 238 201 229 203 233 243 264 319 357 334 308 261 252 247 246 246 249 244 230 234 244 218 223 223 219 222 223
349 304 158 161 168 169 172 180 205 189 183 226 186 157 173 179 204 252 225 253 228 234 208 192 192 206 226 220 232 239 248 224 232 233 231 240 248 251 224 232 223 225 222
317 285 161 170 166 165 164 177 198 212 212 190 166 149 173 176 182 185 246 250 241 70 75 269 226 174 352 313 284 271 301 312 295 279 267 258 245 243 244 248 221 223 226
172 257 176 164 161 163 163 180 186 210 195 179 165 161 164 168 175 173 241 261 234 244 214 254 219 5 22 307 309 309 308 286 275 265 265 268 264 244 238 226 193 205 214
204 142 232 167 157 157 164 175 206 200 199 192 191 185 164 176 183 173 202 245 216 269 274 10 27 332 269 251 291 295 285 323 306 281 300 296 308 272 356 329 228 213 201
161 159 155 213 193 164 164 180 188 207 203 185 200 185 184 175 181 173 208 236 208 202 241 241 75 353 322 322 266 298 296 305 311 336 325 342 47 323 3 299 290 337 279
131 154 153 174 187 196 191 174 194 238 200 188 190 160 182 165 169 168 209 237 232 166 147 172 164 195 243 306 316 189 310 275 328 300 303 346 348 317 220 164 198 347 297
187 173 171 171 200 196 209 181 181 196 202 225 161 160 166 168 167 181 217 226 180 121 239 192 146 178 192 258 295 260 242 244 280 300 296 284 296 285 245 237 194 226 259
224 262 171 167 186 201 194 238 190 202 230 226 175 158 150 164 181 202 209 198 149 134 234 134 119 187 237 255 280 303 331 330 324 270 298 316 336 293 282 276 280 232 224
49 310 146 160 172 204 180 205 263 203 231 302 184 144 156 145 145 192 181 185 161 184 222 166 186 201 211 269 303 302 267 254 274 289 302 303 307 307 317 298 299 316 318